Location: Branson Observatory
(36.6451°N, 93.2213°W)
Time: 20:41:50
(UTC-06:00)

Tiangong 2 - Visible Passes

Search period start: 10 December 2018 00:00
Search period end: 20 December 2018 00:00
Orbit: 382 x 392 km, 42.8° (Epoch: 10 December)

Date Brightness Start Highest point End Pass type
(mag) Time Alt. Az. Time Alt. Az. Time Alt. Az.
17 Dec 3.2 18:57:33 10° SW 18:59:01 22° SSW 18:59:01 22° SSW visible
18 Dec 2.9 17:59:27 10° SSW 18:01:51 20° SE 18:03:10 16° ESE visible
18 Dec 4.7 19:35:17 10° WSW 19:35:27 11° WSW 19:35:27 11° WSW visible
19 Dec 1.0 18:36:28 10° WSW 18:39:33 74° SSE 18:39:33 74° SSE visible
